Flag for Canada Weather past 2 weeks in Ottawa, Ontario, Canada

Now
19 °F

Ice fog.


Feels Like: 9 °F
Forecast: 18 / 26 °F
Wind: 9 mph from Northeast

Location: Ottawa Int'L. Ont.

Current Time: Dec 22, 2014 at 12:57:12 PM

Latest Report: Dec 22, 2014 at 12:00 PM


Visibility: 5 mi

Pressure: 30.37 "Hg

Humidity: 93%

Dew point: 18 °F

Location of OttawaLocation

Historic Weather in Ottawa — Graph

°F

Ottawa temperature yesterday

Maximum temperature yesterday: 19 °F (at 4:00 PM)
Minimum temperature yesterday: 9 °F (at 12:00 AM)
Average temperature yesterday: 15 °F

Past Weeks' High & Low Weather Summary

 TemperatureHumidityPressure
High34 °F (Dec 14, 3:00 PM)100% (Dec 10, 8:00 PM)30.82 "Hg (Dec 10, 8:00 PM)
Low3 °F (Dec 20, 8:00 AM)41% (Dec 7, 2:00 PM)29.64 "Hg (Dec 11, 4:00 AM)
Average24 °F86%30.10 "Hg
* Reported Dec 7 11:00 AM — Dec 22 11:00 AM, Ottawa, Weather by CustomWeather, © 2014

Note: Actual official high and low records may vary slightly from our data, if they occured in-between our weather recording intervals... More about our weather records

Advertising

Ottawa weather history for previous 24 hours

 ConditionsComfort  
Time TempWeatherWind HumidityBarometerVisibility
11:00 AM
Dec 22
19 °FIce fog.8 mph93%30.39 "Hg3 mi
10:00 AM18 °FIce fog.8 mph93%30.40 "Hg2 mi
9:00 AM18 °FIce fog.9 mph93%30.40 "Hg1 mi
8:00 AM18 °FIce fog.8 mph93%30.40 "Hg1 mi
7:00 AM18 °FIce fog.12 mph93%30.40 "Hg2 mi
6:00 AM16 °FIce fog.9 mph100%30.41 "Hg1 mi
5:00 AM16 °FIce fog.8 mph93%30.41 "Hg1 mi
4:00 AM18 °FIce fog.7 mph93%30.40 "Hg2 mi
3:00 AM18 °FIce fog.3 mph93%30.41 "Hg1 mi
2:00 AM16 °FCold.6 mph93%30.41 "Hg1 mi
1:00 AM16 °FCold.6 mph93%30.40 "Hg1 mi
12:49 AM16 °FIce fog.2 mph93%30.40 "Hg1 mi
12:00 AM16 °FIce fog.3 mph93%30.41 "Hg1 mi
11:00 PM
Dec 21
16 °FIce fog.7 mph93%30.41 "Hg1 mi
10:00 PM16 °FIce fog.7 mph93%30.40 "Hg1 mi
9:46 PM16 °FSnow flurries. Ice fog.7 mph93%30.41 "Hg2 mi
9:00 PM16 °FIce fog.3 mph93%30.42 "Hg3 mi
8:55 PM16 °FIce fog.5 mph93%30.41 "Hg3 mi
8:00 PM18 °FIce fog.5 mph93%30.40 "Hg4 mi
7:00 PM18 °FIce fog.5 mph93%30.40 "Hg5 mi
6:00 PM18 °FIce fog.3 mph93%30.39 "Hg6 mi
5:00 PM19 °FIce fog.5 mph86%30.38 "Hg6 mi
4:00 PM19 °FIce fog.5 mph86%30.37 "Hg6 mi
3:00 PM18 °FIce fog.5 mph93%30.36 "Hg6 mi
2:00 PM18 °FIce fog.5 mph93%30.36 "Hg2 mi
1:00 PM18 °FIce fog.6 mph86%30.37 "Hg2 mi
12:50 PM18 °FIce fog.6 mph86%30.37 "Hg2 mi
12:00 PM16 °FLight snow. Ice fog.6 mph93%30.38 "Hg3 mi
Weather by CustomWeather, © 2014

See weather overviewHow to use our weather pages